Date String (YYYY-MM-DD hh:mm:ss) UTC,Instrument flags,Ambient pressure (hPa),Sample flow (lpm),Bypass flow (lpm),Sample temperature (°C),Ambient temperature (°C),ASC tube jacket temperature (°C),LED temperature (°C),Box temperature (°C),Sample RH (%),Span deviation,Mass concentration (μg/m³),Mass concentration (μg/m³),Mass concentration (μg/m³)
DateTimeUTC,F1_M11,P_M11,Q1_M11,Q2_M11,T1_M11,T2_M11,T3_M11,T4_M11,T5_M11,U1_M11,ZSPAN_M11,X0_M11,X2_M11,X1_M11
2022-01-21 00:00:00,,0826.5,5.01,0.00,22.0,21.4,00.0,31.1,23.7,13.3,-000.9,0020.01,0015.40,0014.88
2022-01-21 00:01:00,,0826.5,4.99,0.00,22.0,21.3,00.0,31.0,23.6,13.3,-001.0,0019.96,0015.36,0014.86
2022-01-21 00:02:00,,0826.5,5.02,0.00,22.0,21.5,00.0,31.0,23.7,13.3,-001.0,0020.02,0015.35,0014.86
2022-01-21 00:03:00,,0826.5,5.00,0.00,22.1,22.2,00.0,31.1,23.9,13.2,-001.0,0019.94,0015.31,0014.82
2022-01-21 00:04:00,,0826.5,4.99,0.00,22.2,23.0,00.0,31.1,24.2,13.1,-000.9,0019.90,0015.27,0014.78
2022-01-21 00:05:00,,0826.5,5.01,0.00,22.3,22.9,00.0,31.1,24.3,13.0,-001.0,0019.68,0015.16,0014.71
2022-01-21 00:06:00,,0826.5,4.99,0.00,22.3,22.6,00.0,31.1,24.2,13.0,-001.0,0019.52,0015.08,0014.63
2022-01-21 00:07:00,,0826.5,4.99,0.00,22.3,22.4,00.0,31.2,24.1,13.0,-000.9,0019.46,0015.03,0014.56
2022-01-21 00:08:00,,0826.4,5.00,0.00,22.3,22.3,00.0,31.2,24.1,13.0,-000.8,0019.29,0014.93,0014.49
2022-01-21 00:09:00,,0826.5,4.98,0.00,22.3,22.1,00.0,31.2,24.0,13.0,-000.7,0019.17,0014.84,0014.40
2022-01-21 00:10:00,,0826.4,5.01,0.00,22.2,21.9,00.0,31.2,23.9,13.1,-000.7,0019.05,0014.77,0014.34
2022-01-21 00:11:00,,0826.5,5.00,0.00,22.2,21.6,00.0,31.2,23.8,13.1,-000.7,0018.97,0014.73,0014.32
2022-01-21 00:12:00,,0826.5,5.01,0.00,22.1,21.5,00.0,31.1,23.8,13.2,-000.8,0019.09,0014.75,0014.31
2022-01-21 00:13:00,,0826.5,5.01,0.00,22.1,21.4,00.0,31.1,23.7,13.2,-000.8,0019.01,0014.71,0014.26
2022-01-21 00:14:00,,0826.5,4.99,0.00,22.0,21.4,00.0,31.1,23.7,13.2,-000.7,0019.23,0014.69,0014.24
2022-01-21 00:15:00,,0826.5,5.00,0.00,22.0,21.4,00.0,31.1,23.7,13.2,-000.6,0019.60,0014.70,0014.23
2022-01-21 00:16:00,,0826.5,5.02,0.00,22.0,21.3,00.0,31.1,23.7,13.2,-000.6,0019.69,0014.75,0014.26
2022-01-21 00:17:00,,0826.5,4.99,0.00,22.0,21.3,00.0,31.1,23.7,13.2,-000.7,0019.65,0014.72,0014.26
2022-01-21 00:18:00,,0826.4,5.00,0.00,22.0,21.3,00.0,31.1,23.6,13.2,-000.8,0019.65,0014.73,0014.28
2022-01-21 00:19:00,,0826.4,5.01,0.00,22.0,21.3,00.0,31.0,23.7,13.2,-000.9,0019.98,0014.71,0014.24
2022-01-21 00:20:00,,0826.5,4.99,0.00,21.9,21.2,00.0,31.0,23.6,13.2,-001.0,0020.24,0014.68,0014.21
2022-01-21 00:21:00,,0826.5,5.01,0.00,21.9,21.2,00.0,31.0,23.6,13.3,-001.0,0020.31,0014.71,0014.21
2022-01-21 00:22:00,,0826.5,5.01,0.00,21.9,21.2,00.0,31.0,23.6,13.3,-001.2,0020.24,0014.66,0014.18
2022-01-21 00:23:00,,0826.5,4.99,0.00,21.9,21.2,00.0,31.0,23.6,13.3,-001.1,0020.12,0014.61,0014.14
2022-01-21 00:24:00,,0826.5,4.99,0.00,21.9,21.2,00.0,31.0,23.6,13.3,-001.1,0020.00,0014.55,0014.12
2022-01-21 00:25:00,,0826.5,5.02,0.00,21.9,21.2,00.0,31.0,23.6,13.3,-001.3,0019.79,0014.50,0014.07
2022-01-21 00:26:00,,0826.5,4.99,0.00,21.9,21.2,00.0,30.9,23.6,13.3,-001.5,0019.38,0014.47,0014.04
2022-01-21 00:27:00,,0826.5,5.01,0.00,21.9,21.3,00.0,30.9,23.6,13.3,-001.5,0019.43,0014.45,0014.01
2022-01-21 00:28:00,,0826.5,4.99,0.00,21.9,21.3,00.0,30.9,23.6,13.2,-001.4,0019.43,0014.42,0013.97
2022-01-21 00:29:00,,0826.6,5.01,0.00,21.9,21.7,00.0,30.9,23.7,13.2,-001.3,0019.46,0014.37,0013.93
2022-01-21 00:30:00,,0826.6,4.99,0.00,22.1,22.5,00.0,31.0,24.0,13.1,-001.3,0019.19,0014.33,0013.91
2022-01-21 00:31:00,,0826.6,5.01,0.00,22.2,23.1,00.0,31.0,24.2,13.0,-001.0,0018.86,0014.31,0013.91
2022-01-21 00:32:00,,0826.6,5.00,0.00,22.3,23.0,00.0,31.1,24.3,12.9,-001.1,0018.93,0014.33,0013.91
2022-01-21 00:33:00,,0826.5,5.00,0.00,22.3,22.8,00.0,31.1,24.3,12.9,-001.1,0019.12,0014.40,0013.92
2022-01-21 00:34:00,,0826.5,5.00,0.00,22.3,22.6,00.0,31.1,24.3,12.9,-001.3,0019.16,0014.40,0013.94
2022-01-21 00:35:00,,0826.5,5.01,0.00,22.3,22.4,00.0,31.1,24.2,12.9,-001.3,0019.28,0014.48,0014.00
2022-01-21 00:36:00,,0826.5,5.00,0.00,22.3,22.2,00.0,31.1,24.2,12.9,-001.2,0019.38,0014.57,0014.08
2022-01-21 00:37:00,,0826.5,4.99,0.00,22.3,22.1,00.0,31.2,24.1,12.9,-001.0,0019.31,0014.56,0014.11
2022-01-21 00:38:00,,0826.5,4.99,0.00,22.3,22.0,00.0,31.2,24.1,12.9,-000.8,0019.41,0014.59,0014.14
2022-01-21 00:39:00,,0826.5,5.02,0.00,22.3,21.9,00.0,31.2,24.1,12.9,-000.9,0019.89,0014.68,0014.22
2022-01-21 00:40:00,,0826.5,4.99,0.00,22.3,21.9,00.0,31.2,24.1,13.0,-001.1,0020.08,0014.73,0014.28
2022-01-21 00:41:00,,0826.6,5.01,0.00,22.3,21.8,00.0,31.2,24.1,13.0,-001.2,0020.15,0014.81,0014.34
2022-01-21 00:42:00,,0826.6,4.99,0.00,22.3,21.8,00.0,31.2,24.1,13.0,-001.4,0020.16,0014.87,0014.41
2022-01-21 00:43:00,,0826.6,5.01,0.00,22.3,21.8,00.0,31.2,24.1,13.0,-001.4,0020.17,0014.91,0014.48
2022-01-21 00:44:00,,0826.6,4.99,0.00,22.3,21.7,00.0,31.2,24.1,13.0,-001.3,0020.24,0014.98,0014.55
2022-01-21 00:45:00,,0826.5,5.01,0.00,22.3,21.7,00.0,31.2,24.1,13.0,-001.3,0020.39,0015.05,0014.60
2022-01-21 00:46:00,,0826.5,5.01,0.00,22.3,21.7,00.0,31.2,24.0,13.0,-001.3,0020.41,0015.06,0014.63
2022-01-21 00:47:00,,0826.5,5.00,0.00,22.3,21.7,00.0,31.2,24.0,13.0,-001.4,0020.46,0015.12,0014.69
2022-01-21 00:48:00,,0826.5,5.01,0.00,22.3,21.7,00.0,31.2,24.0,13.0,-001.3,0020.68,0015.24,0014.78
2022-01-21 00:49:00,,0826.5,4.99,0.00,22.3,21.6,00.0,31.2,24.0,13.0,-001.3,0020.82,0015.26,0014.82
2022-01-21 00:50:00,,0826.5,4.99,0.00,22.2,21.6,00.0,31.2,24.0,13.0,-001.2,0020.57,0015.27,0014.86
2022-01-21 00:51:00,,0826.5,5.01,0.00,22.2,21.6,00.0,31.2,24.0,13.1,-001.1,0020.47,0015.36,0014.92
2022-01-21 00:52:00,,0826.5,4.98,0.00,22.2,21.6,00.0,31.2,24.0,13.1,-001.0,0020.57,0015.41,0014.97
2022-01-21 00:53:00,,0826.5,5.00,0.00,22.2,21.6,00.0,31.2,24.0,13.1,-000.9,0020.60,0015.41,0014.95
2022-01-21 00:54:00,,0826.6,4.99,0.00,22.2,21.6,00.0,31.2,23.9,13.1,-000.8,0020.51,0015.37,0014.91
2022-01-21 00:55:00,,0826.5,5.00,0.00,22.2,21.5,00.0,31.2,23.9,13.1,-000.7,0020.35,0015.32,0014.88
2022-01-21 00:56:00,,0826.5,5.02,0.00,22.2,21.5,00.0,31.2,23.9,13.1,-000.5,0020.21,0015.32,0014.90
2022-01-21 00:57:00,,0826.5,4.99,0.00,22.2,21.5,00.0,31.2,23.9,13.1,-000.4,0020.26,0015.36,0014.93
2022-01-21 00:58:00,,0826.5,4.99,0.00,22.2,21.5,00.0,31.2,23.9,13.1,-000.4,0020.26,0015.35,0014.94
2022-01-21 00:59:00,,0826.6,5.01,0.00,22.2,21.5,00.0,31.1,23.9,13.2,-000.3,0020.30,0015.36,0014.95
